Theta_e
318 320 321 321 319 317 317 317 317 318 317 318 318 319 319 318 316 316 317 317 316 315 315 315 314 314 315 315 314 314 314 315 315 314 315 314 314 314 314 315 315 315 318 314 309 309 309 309 309 307 306 305 304 303 302 302 300 299 299 298 297 297 297 296 296 296 295 295 295 295 294 294 294 294 293 293 292 292 291 291 290 289 289 289 289 289
319 320 320 318 317 316 317 317 317 318 318 318 319 319 319 318 317 316 318 317 314 315 315 315 315 314 314 314 314 315 314 314 314 314 314 314 314 314 314 316 315 319 323 317 311 309 308 308 307 306 305 304 303 302 302 301 300 299 299 298 297 297 297 296 296 296 295 295 295 294 294 293 293 293 292 292 291 291 291 291 290 289 289 289 289 288
320 320 318 317 316 316 316 317 319 319 320 320 320 320 318 317 317 316 318 316 312 314 315 315 314 313 314 314 314 315 314 314 314 314 314 314 314 314 315 315 316 322 323 315 312 309 306 306 306 304 304 303 302 301 301 300 300 299 298 298 297 297 296 296 296 295 295 294 294 294 293 293 293 292 292 291 291 291 291 291 290 289 288 288 288 288
320 319 317 317 316 316 316 317 319 318 319 320 318 318 317 317 318 316 316 315 312 313 315 314 314 313 313 314 314 314 314 314 314 315 316 316 316 316 316 316 319 324 319 312 311 310 306 304 303 303 302 302 302 301 300 300 299 298 298 297 297 297 296 296 295 295 295 294 294 294 293 293 293 292 292 292 291 291 290 290 289 288 288 288 288 288
318 317 318 318 316 317 317 318 320 318 316 319 320 318 316 317 318 317 317 319 316 314 314 315 314 314 314 315 315 314 315 314 314 315 315 316 317 317 318 319 322 324 317 312 311 309 307 304 302 301 301 301 301 300 300 299 299 298 298 297 297 296 296 296 295 295 294 294 294 294 294 293 293 292 292 292 291 291 290 289 288 288 288 288 287 288
316 317 320 320 320 321 321 319 322 322 316 316 321 321 317 317 317 319 321 322 322 319 317 318 317 315 317 318 317 317 318 316 315 315 315 316 316 317 318 318 322 323 316 312 310 308 306 303 300 300 300 300 300 299 299 299 299 298 298 298 297 296 296 295 295 295 294 294 294 294 294 293 292 291 291 292 292 291 290 289 288 288 288 288 287 287
317 317 319 320 321 324 324 321 322 324 317 314 323 327 321 319 321 323 323 322 324 321 318 320 320 317 316 316 316 317 319 318 316 316 316 316 316 317 317 317 322 323 316 313 310 307 305 303 301 300 299 299 300 299 299 299 299 298 298 298 297 296 296 295 295 294 294 294 294 294 293 293 292 291 291 291 291 291 289 288 288 289 288 288 288 287
317 317 319 321 321 324 323 319 319 321 318 318 325 329 322 319 322 323 322 323 323 319 317 320 321 319 315 314 316 317 317 317 316 316 316 316 315 316 315 318 324 323 316 313 311 307 305 303 301 300 299 299 299 299 299 298 298 298 298 297 297 296 295 295 294 294 294 294 294 294 293 293 292 292 291 291 290 290 289 289 289 289 289 288 287 287
322 321 322 323 322 322 320 320 323 322 319 320 322 322 321 320 320 319 320 322 321 317 319 322 321 319 315 314 317 317 315 316 316 315 315 315 315 315 314 316 324 322 316 314 311 307 306 303 301 300 299 299 299 299 299 298 298 298 297 297 297 296 295 295 294 294 294 294 294 293 293 292 292 291 291 291 290 290 290 290 289 289 289 288 287 287
323 319 318 321 321 320 319 321 326 326 320 320 321 319 320 320 318 317 318 318 318 317 319 323 321 317 315 316 319 317 316 316 316 315 314 315 315 316 314 315 321 323 317 314 311 308 305 302 301 301 299 299 299 299 298 298 298 297 297 297 297 296 295 295 294 294 294 294 293 293 292 292 291 291 291 291 291 291 291 290 289 288 288 287 287 286
316 311 312 320 319 317 319 317 316 321 319 318 319 318 319 320 317 316 316 316 318 318 317 321 320 316 316 319 319 318 317 317 316 314 314 315 315 315 315 316 322 324 318 314 312 309 305 302 301 300 299 299 298 298 298 298 297 297 297 297 296 296 295 295 294 294 294 293 293 292 292 291 291 291 292 291 291 290 290 289 288 288 287 287 286 286
315 312 313 319 318 314 319 317 311 312 315 317 318 315 318 321 319 317 316 317 319 319 318 321 320 318 317 318 317 316 318 317 315 314 314 315 315 315 316 319 324 323 319 315 313 311 308 304 302 300 298 298 298 298 298 297 297 297 297 296 296 296 295 295 294 294 293 293 293 292 292 291 292 292 292 291 290 290 289 289 288 287 287 286 286 286
318 316 314 318 318 315 319 319 313 311 313 318 319 315 319 321 320 321 321 322 322 319 320 323 321 319 316 315 316 316 316 317 315 315 316 316 317 317 318 324 326 323 319 316 313 311 308 305 303 300 297 297 297 297 297 297 297 296 296 296 296 295 295 295 294 294 293 293 292 292 292 291 292 292 292 291 291 290 289 288 288 287 287 287 287 286
324 320 317 317 317 315 316 316 316 316 314 315 317 318 322 322 319 321 323 325 324 320 320 320 321 322 317 315 318 316 315 317 315 316 319 320 321 318 323 330 328 323 319 315 312 311 308 305 304 300 296 296 296 296 296 297 296 296 296 296 295 295 295 295 294 294 293 293 292 292 292 291 291 291 291 291 290 290 289 288 288 288 287 287 287 286
323 321 319 319 318 316 315 313 316 320 315 311 314 317 320 322 318 318 321 321 320 320 319 318 323 323 315 316 321 317 315 316 315 317 319 322 323 320 327 333 329 323 320 316 313 312 309 306 302 298 296 296 296 296 296 296 296 296 295 295 295 295 295 294 294 293 293 292 292 291 291 291 291 291 291 290 290 289 289 288 288 288 287 287 287 286
318 319 319 319 318 316 314 313 316 322 318 313 315 316 317 320 318 317 320 318 318 321 319 317 323 321 313 315 318 315 315 316 316 317 317 319 321 320 326 333 331 324 320 317 314 312 311 308 301 296 296 296 295 296 295 295 296 295 295 295 295 295 295 294 294 293 293 292 291 291 291 291 291 291 290 290 289 289 289 288 288 288 287 286 286 286
317 321 323 318 315 314 314 315 317 321 321 316 316 317 318 320 319 318 321 319 317 320 318 315 319 317 313 315 316 314 314 314 314 316 315 317 318 317 321 329 330 325 319 316 314 312 311 309 302 297 296 296 295 295 295 295 295 295 295 295 295 294 294 294 293 293 292 292 291 291 290 291 290 290 290 290 289 289 288 288 288 287 286 286 286 285
317 318 322 318 316 315 312 314 316 317 318 317 318 319 318 320 320 318 319 320 319 319 317 315 316 315 313 316 317 316 316 314 313 314 314 316 316 316 319 324 327 324 318 314 312 311 309 309 304 298 296 297 296 295 295 295 295 295 295 295 294 294 294 294 293 293 292 292 291 290 290 290 290 290 290 289 289 288 288 287 287 287 286 285 285 285
320 316 319 319 318 315 310 312 316 315 315 316 317 318 318 320 322 319 317 319 319 317 316 316 316 314 313 314 314 314 317 317 314 313 314 314 314 316 319 322 326 324 318 313 312 310 308 308 305 299 297 297 297 296 295 295 295 295 295 294 294 294 294 293 293 292 292 291 291 290 290 289 289 289 289 289 288 288 287 287 286 286 286 285 285 285
320 317 317 317 315 313 311 313 317 317 315 313 313 314 315 316 320 321 318 317 316 315 315 315 316 314 313 314 313 314 317 317 314 314 315 314 315 317 319 322 327 327 321 315 312 309 307 306 303 298 297 297 297 296 296 295 295 294 294 294 294 294 293 293 293 292 292 291 290 290 289 289 289 288 288 288 288 287 287 287 286 286 285 285 285 285
318 317 316 316 313 313 313 314 315 317 316 313 312 314 313 312 315 318 318 316 316 316 315 315 315 314 313 314 315 315 316 317 316 316 317 316 317 318 319 322 326 327 323 316 312 309 306 305 301 297 297 298 297 296 296 295 294 294 294 294 294 293 293 293 292 292 291 291 290 290 289 288 288 288 287 287 287 287 286 286 286 286 285 285 285 286
317 317 316 316 315 314 314 314 313 314 316 315 313 313 313 313 314 315 316 316 316 315 314 315 315 314 313 315 315 314 316 317 317 317 317 320 321 321 323 327 329 328 326 322 316 311 308 306 302 297 297 297 296 296 295 295 294 294 294 294 293 293 293 292 292 292 291 290 290 289 289 288 287 287 286 286 286 286 286 285 285 285 285 285 285 286
318 319 316 315 316 315 314 316 316 315 316 316 315 314 314 313 314 315 315 315 315 316 315 315 315 314 313 314 314 313 313 315 317 317 318 319 323 326 327 330 332 330 328 326 322 316 311 307 302 297 295 296 295 295 295 294 294 294 293 293 293 293 293 292 292 291 291 290 289 289 288 287 287 286 286 285 285 285 285 284 284 284 284 285 285 285
318 319 316 314 316 315 315 317 318 315 314 315 317 317 315 313 313 314 314 313 314 316 315 315 315 315 313 313 315 314 313 314 316 317 316 316 318 324 328 329 330 330 328 326 324 318 312 307 302 299 298 296 294 294 294 294 293 293 293 293 293 293 292 292 291 291 290 290 289 288 288 287 286 285 285 284 284 284 284 284 284 284 284 285 285 284
316 318 315 314 316 315 315 315 314 313 313 314 316 317 316 316 315 316 315 314 314 314 314 314 314 314 312 314 316 315 313 313 313 313 315 316 317 321 325 326 327 328 327 325 323 317 311 308 305 302 300 296 293 294 294 293 293 293 292 292 292 292 292 291 291 290 290 289 288 288 287 286 285 284 284 284 283 283 283 283 283 284 284 284 284 283
315 316 316 316 316 316 316 315 314 315 314 312 313 315 315 317 318 317 315 315 315 314 314 314 313 312 311 312 313 312 311 312 311 312 313 315 316 318 321 324 324 324 324 323 320 314 310 308 305 302 301 296 293 293 293 293 293 292 292 292 292 292 291 291 290 290 289 288 288 287 286 285 284 284 283 283 283 283 283 283 283 283 284 284 283 281
313 315 315 315 315 315 315 315 314 314 313 312 314 315 315 316 317 316 315 315 314 314 314 314 313 313 312 311 311 311 311 311 311 311 312 312 313 316 320 324 324 321 320 319 317 312 308 306 304 303 301 297 293 293 294 293 293 292 292 292 291 291 291 290 290 289 288 288 287 286 285 285 284 283 283 283 282 282 282 282 283 283 283 282 281 280
312 314 315 314 314 314 313 312 312 312 312 311 313 314 314 315 316 317 316 314 313 314 314 313 313 314 313 311 311 311 311 311 311 311 311 311 312 314 320 324 323 321 319 317 316 313 309 307 305 304 302 298 294 293 293 293 293 292 292 291 291 291 291 290 289 288 288 287 286 285 285 284 283 283 282 282 282 282 282 282 282 283 282 281 280 279
312 313 314 314 314 313 312 312 311 312 311 311 311 311 312 314 315 316 315 313 313 313 312 312 313 314 312 311 311 311 311 311 311 310 311 311 310 311 313 316 318 319 318 317 316 314 312 309 307 304 302 299 295 292 292 292 292 292 292 291 291 291 290 290 289 288 287 286 286 285 284 284 283 282 282 281 281 281 281 282 282 281 281 280 279 279
312 312 313 314 313 314 313 312 312 311 311 311 312 312 312 312 313 314 313 312 313 313 312 312 312 312 311 311 311 311 311 311 310 310 310 310 310 310 310 311 314 316 316 315 315 313 312 310 308 306 303 300 297 294 292 292 292 292 291 291 291 290 290 289 288 287 286 286 285 284 284 283 282 282 281 281 281 281 281 281 281 280 280 279 279 278
312 313 313 313 313 313 313 312 312 312 312 312 312 312 312 312 312 312 312 311 312 312 312 312 313 312 311 310 310 310 310 310 310 310 310 309 310 310 309 310 313 314 313 312 312 312 311 309 308 306 303 302 299 295 292 292 292 292 291 291 290 290 289 289 288 287 286 285 285 284 283 283 282 281 281 281 280 280 280 280 280 280 279 278 278 278
311 312 313 313 313 313 313 312 312 311 312 312 312 312 311 311 311 311 311 311 311 312 312 312 313 312 311 310 311 311 310 310 310 310 310 309 309 310 309 310 312 312 311 310 311 311 311 310 308 307 305 304 300 294 293 294 292 291 291 291 290 290 289 288 287 286 285 285 284 284 283 282 282 281 281 280 280 280 280 280 279 279 278 277 277 277
311 311 312 313 313 314 313 312 312 311 312 312 312 311 311 311 311 310 311 311 311 311 312 312 312 311 310 311 311 311 311 310 310 310 310 310 309 309 310 310 310 311 310 310 310 311 311 310 309 308 307 304 300 296 296 295 293 292 292 291 290 289 288 287 287 286 285 285 284 283 283 282 281 281 280 280 280 280 280 279 279 278 277 276 276 276
311 311 311 313 314 315 314 314 313 313 314 314 313 311 310 310 311 311 311 311 310 310 311 311 311 310 310 311 310 311 311 310 310 310 310 310 310 310 310 310 311 311 310 310 311 312 312 311 310 309 305 301 300 300 298 296 295 294 292 291 290 289 287 286 286 285 285 284 283 283 282 281 281 280 280 279 279 279 279 278 277 276 276 275 275 275
312 311 312 313 315 315 315 316 316 316 316 316 315 312 311 310 310 311 312 311 310 311 311 310 310 310 310 310 310 310 310 310 310 310 310 310 310 310 310 310 310 310 310 310 310 310 311 310 311 311 306 301 300 301 299 296 295 294 292 291 289 288 287 286 285 285 284 283 283 282 281 281 280 279 279 278 278 278 277 277 276 275 275 275 275 275
313 313 313 314 314 315 315 316 318 318 316 314 314 312 310 311 311 312 312 311 310 310 310 310 310 310 310 310 310 310 310 310 310 310 310 310 310 310 310 310 310 310 309 309 309 310 310 309 308 308 306 302 300 299 297 296 295 293 291 290 288 287 286 285 284 284 283 283 282 282 281 280 279 278 278 277 277 276 275 275 274 274 274 274 274 274
313 313 314 315 315 316 316 315 316 316 315 314 315 313 311 311 312 312 313 312 310 310 310 310 310 310 310 310 310 310 310 310 310 310 310 310 310 310 310 309 309 310 309 309 309 308 306 304 303 303 302 300 298 298 297 295 294 292 289 288 287 286 285 285 284 283 283 282 282 281 280 280 279 277 277 276 276 275 274 274 274 274 274 274 273 273
313 313 314 316 316 316 317 316 317 317 316 316 316 314 311 311 311 312 313 313 312 311 311 310 310 310 310 311 310 310 311 311 311 311 310 310 310 310 310 310 310 310 310 310 310 308 304 301 302 303 301 298 296 296 295 294 292 290 287 286 285 285 284 284 283 283 283 282 281 280 280 279 278 277 276 276 275 275 274 274 274 274 274 274 274 274
313 312 313 315 315 316 317 318 318 318 317 316 316 314 312 312 311 312 313 314 314 313 312 311 311 311 311 311 311 311 312 312 312 311 310 310 310 310 310 311 311 311 310 308 307 307 305 301 300 300 298 295 294 294 294 293 290 288 286 285 285 284 283 283 283 283 282 281 281 280 279 278 278 277 276 275 275 275 275 274 274 274 274 274 274 274
313 313 313 314 315 316 316 317 317 316 317 317 316 313 312 313 312 314 316 317 315 313 312 311 312 312 311 311 311 311 312 312 312 311 311 311 312 311 311 312 312 312 312 309 305 303 302 299 299 300 298 293 293 293 292 291 289 287 286 285 284 283 283 283 283 283 282 281 280 279 278 278 277 277 276 275 275 275 275 275 274 273 273 273 274 274
313 313 314 315 315 315 316 317 316 315 315 316 315 313 312 312 314 315 316 315 313 313 312 312 312 311 310 311 310 310 311 310 309 310 310 310 311 311 311 311 311 312 311 308 304 301 298 295 297 299 297 294 293 292 291 289 288 286 285 284 283 283 284 283 283 282 281 280 279 278 277 277 276 276 276 276 275 275 274 274 274 274 274 273 273 272
310 313 314 314 315 315 315 315 315 315 313 312 312 313 312 314 315 314 311 310 310 309 309 309 309 308 308 308 308 308 307 306 306 306 306 306 306 307 307 306 308 309 306 302 300 298 295 295 296 295 294 294 293 291 290 289 287 286 285 283 283 283 284 283 282 281 280 278 277 277 276 275 276 276 275 274 274 274 273 273 274 274 274 273 272 272
305 307 308 311 314 314 314 315 316 315 311 306 307 312 313 312 309 308 306 307 307 308 307 307 306 306 305 306 306 305 305 305 305 305 305 305 304 305 305 304 305 307 305 302 300 296 295 299 299 294 292 292 291 290 289 288 287 286 284 283 283 283 283 282 281 280 278 277 276 275 275 275 274 274 274 273 274 274 273 272 272 273 273 272 272 271
302 303 304 307 309 308 309 312 312 309 306 304 304 305 305 303 301 302 305 306 307 307 306 305 306 305 305 306 306 305 305 305 305 305 305 305 305 305 306 305 305 306 305 304 299 294 294 299 299 293 290 290 289 288 288 288 287 285 284 284 283 283 282 281 279 278 277 276 275 274 274 273 273 273 273 274 273 273 272 271 271 271 271 271 270 269
302 303 303 303 303 303 304 306 305 303 303 303 301 300 299 297 297 301 305 305 305 305 306 306 306 305 305 306 305 304 304 304 304 304 304 305 305 305 305 305 305 305 304 302 297 293 293 295 294 292 290 289 287 287 287 287 287 285 284 284 283 282 281 279 278 276 275 274 274 273 272 272 271 271 272 273 273 272 271 270 270 269 269 269 269 268
300 301 299 298 299 300 299 300 301 301 300 297 296 296 296 295 299 305 306 304 304 306 306 306 306 305 305 304 303 303 303 303 303 303 304 304 304 304 305 305 305 304 303 302 298 293 291 292 292 293 293 289 286 287 287 287 286 286 285 284 282 281 280 278 276 275 274 273 272 271 271 270 270 270 270 271 272 273 272 271 270 269 268 268 268 268
296 297 295 295 296 295 294 295 296 296 294 293 294 295 295 296 302 306 304 302 303 304 304 304 304 303 304 303 303 303 303 303 303 303 303 303 303 303 304 305 305 304 303 302 298 293 291 293 295 298 297 292 287 285 286 286 286 286 285 283 282 280 278 277 276 274 273 272 270 269 269 269 268 268 269 269 270 271 271 271 271 270 268 268 268 268
293 293 292 292 293 293 292 293 293 293 294 294 294 295 296 298 300 301 300 300 300 300 300 300 300 301 302 302 302 303 303 303 303 302 302 302 302 303 303 304 305 305 303 299 294 291 292 297 299 299 298 294 288 285 285 285 285 285 284 283 281 279 277 276 275 273 272 270 269 268 268 268 267 267 267 268 268 269 269 270 270 270 269 269 269 269
291 292 291 291 291 291 292 293 293 293 294 294 294 296 297 297 296 295 296 297 297 296 296 297 297 297 298 299 301 302 301 301 300 301 301 301 302 302 303 303 304 304 304 301 295 290 292 296 298 298 296 292 288 285 284 284 284 284 283 282 280 278 276 275 274 272 270 269 268 268 267 267 267 267 267 267 268 269 270 270 270 269 269 269 270 270
290 290 290 290 290 290 291 292 292 291 291 291 292 294 294 293 292 291 291 291 292 292 292 293 294 294 295 295 296 297 298 298 298 298 299 299 300 300 301 302 302 302 303 301 296 293 292 292 293 294 294 290 287 286 283 283 283 283 282 281 279 278 276 274 272 271 269 268 268 268 267 267 266 267 268 268 268 268 268 269 269 269 270 269 270 270
289 289 289 289 289 290 290 289 289 289 289 290 290 290 289 290 289 288 288 288 289 290 291 291 291 291 291 291 292 293 294 295 295 295 296 296 296 297 298 299 300 300 300 300 299 299 297 293 290 291 291 289 287 285 283 282 282 282 280 279 278 277 276 274 272 270 269 268 268 268 267 267 266 267 267 268 268 268 268 268 269 270 270 270 270 270
Wind_Speed
4 4 5 8 11 10 10 12 14 14 13 12 11 9 7 7 10 14 12 5 10 7 9 14 13 16 16 14 13 12 12 13 13 13 13 13 13 14 14 12 11 13 10 9 18 25 28 28 28 26 26 28 29 29 31 33 33 33 34 34 34 33 34 34 33 32 31 30 29 27 27 27 26 25 23 21 20 19 19 18 16 13 11 11 9 7
1 6 10 15 16 11 10 12 12 12 12 12 9 7 7 8 11 14 11 5 8 6 8 11 11 14 16 13 12 12 12 14 14 15 16 16 16 15 14 14 13 8 3 8 12 17 23 24 24 25 26 29 30 29 31 34 34 34 35 35 35 35 35 36 36 35 34 34 32 31 31 30 28 27 26 24 22 21 20 19 16 13 12 12 10 8
4 10 14 16 13 10 11 11 9 9 9 9 7 5 7 9 10 12 9 2 4 3 6 9 10 12 15 14 13 14 14 14 15 16 17 16 16 15 13 14 11 4 6 8 9 11 17 21 24 25 26 29 31 30 32 34 34 35 35 36 36 37 37 36 36 37 35 34 33 31 30 29 27 25 25 24 22 22 21 19 16 14 13 12 11 10
8 10 14 16 13 12 14 10 7 7 7 7 6 6 8 10 8 8 5 2 4 5 6 9 9 10 13 13 15 17 18 16 16 17 17 15 14 15 15 13 9 7 8 9 9 9 12 17 22 24 26 29 30 30 32 35 35 36 37 38 38 39 38 37 37 37 35 32 30 27 26 27 26 24 22 22 22 23 22 20 17 15 15 13 12 11
15 8 6 10 12 13 13 9 7 5 7 8 7 8 10 12 11 10 7 2 3 6 5 6 9 9 10 12 14 13 14 15 13 14 14 14 14 15 15 13 9 9 10 10 11 10 10 13 18 23 27 29 30 31 34 37 37 37 39 40 40 40 39 38 37 36 34 32 30 27 25 25 24 23 23 24 24 24 23 21 19 17 16 15 13 12
16 8 5 7 7 8 10 8 7 6 8 9 7 12 16 15 13 13 9 5 3 5 2 2 7 9 7 10 12 6 7 10 9 11 13 14 15 13 12 12 9 8 10 11 12 12 11 11 16 21 26 28 30 33 35 38 39 38 39 40 40 39 39 37 37 36 35 35 35 34 33 31 28 26 27 29 29 28 25 22 19 17 17 16 15 13
7 6 7 9 8 7 7 6 6 8 7 9 4 7 12 12 11 10 7 2 1 5 2 4 3 10 8 7 9 6 6 8 8 10 13 13 13 12 10 11 8 8 10 10 10 11 12 12 14 18 25 30 31 33 35 37 38 38 38 39 39 39 38 37 37 37 38 38 38 38 37 35 33 31 30 32 31 28 25 22 20 19 18 17 15 13
3 6 5 7 8 7 7 8 7 9 7 6 2 1 2 4 6 5 3 4 3 4 4 4 4 9 14 6 8 10 8 8 9 10 12 13 13 13 13 11 8 10 11 10 10 11 13 13 15 19 26 32 33 33 35 36 37 38 37 38 39 38 38 37 37 39 40 40 39 38 36 34 34 32 30 30 27 25 24 22 22 21 20 18 15 13
3 7 7 9 8 6 7 7 6 10 8 5 1 1 3 1 1 1 1 4 2 4 4 5 7 5 15 6 7 10 10 10 12 13 13 14 14 14 14 12 9 10 11 11 12 13 13 14 19 24 28 31 32 33 35 36 37 37 37 37 37 37 37 38 39 40 40 40 39 38 36 33 31 29 27 27 26 25 25 25 24 22 20 18 15 14
1 4 5 6 7 7 6 1 1 5 7 4 2 3 5 2 1 2 2 2 2 4 6 6 8 4 15 8 5 7 7 9 12 12 13 13 14 13 13 13 9 9 9 10 11 12 13 16 22 25 26 28 30 32 34 35 35 36 37 37 38 38 38 38 40 41 40 39 38 37 36 33 30 27 26 28 28 28 27 27 25 23 20 18 16 15
2 2 1 2 4 4 4 4 2 1 2 3 3 2 2 1 1 1 2 2 1 9 7 10 13 9 10 5 6 6 6 9 9 8 10 10 12 13 11 11 9 9 8 9 10 10 11 15 20 23 23 27 30 31 32 34 35 36 37 38 39 38 37 38 39 40 40 39 38 38 37 35 32 31 30 31 31 29 28 27 25 23 21 18 16 15
5 1 1 1 1 4 6 3 1 2 1 3 4 2 1 3 2 2 1 3 2 10 5 11 15 13 11 5 3 4 7 10 10 8 9 11 12 13 11 9 9 9 9 9 9 9 10 12 15 19 21 25 28 29 32 34 36 36 37 38 38 37 37 38 40 41 41 40 39 38 37 36 35 35 35 34 33 32 31 29 27 24 21 18 17 16
6 8 7 1 2 5 6 2 2 4 1 3 5 4 1 3 2 1 2 2 5 10 5 10 13 11 14 10 5 7 7 9 10 9 11 12 11 12 11 9 8 8 9 10 10 9 10 11 12 14 18 23 27 31 34 35 36 36 37 38 39 39 39 39 40 42 41 41 40 38 38 37 36 36 36 35 34 34 33 31 28 26 23 21 20 19
3 6 7 4 3 6 9 6 4 2 4 7 6 6 5 4 3 4 4 3 6 9 7 7 10 6 9 7 10 15 14 13 11 9 10 10 9 11 10 7 7 8 9 9 10 10 10 12 12 13 18 23 27 31 34 35 36 37 37 39 40 40 39 40 41 42 42 42 41 39 38 38 37 37 37 35 35 34 33 31 29 28 26 24 23 21
4 7 6 10 3 8 13 13 11 4 5 9 6 5 6 5 3 4 5 7 7 6 5 3 6 4 4 2 10 15 15 14 12 10 10 9 9 10 5 6 7 7 8 8 9 10 10 11 11 12 18 23 27 31 33 34 36 36 37 40 42 41 41 41 42 42 43 43 41 40 39 39 38 38 37 36 35 34 33 31 30 28 26 25 23 20
6 10 8 10 3 10 15 14 10 5 1 6 4 3 6 5 4 5 7 9 5 5 5 4 4 6 6 7 10 11 10 11 9 9 10 9 10 11 5 6 7 7 7 7 8 9 9 9 9 12 17 22 25 29 32 34 36 38 39 41 43 43 43 43 43 43 44 43 41 41 41 40 39 38 38 37 35 34 33 32 30 29 27 25 23 22
5 7 4 6 1 5 9 6 7 5 2 3 4 5 6 3 5 6 8 7 3 5 9 6 6 7 8 12 12 13 14 13 11 11 10 10 13 14 9 6 7 7 7 8 8 9 9 9 10 13 18 21 25 29 33 36 40 42 42 41 42 42 41 42 44 44 43 42 41 41 41 41 41 40 39 39 37 35 33 31 30 29 27 26 25 23
6 6 3 6 2 2 2 4 2 3 3 6 3 5 2 3 1 3 2 4 3 7 9 8 10 10 10 10 5 4 10 12 12 12 12 13 16 14 9 8 8 8 8 8 8 8 9 9 9 14 19 23 26 29 33 37 40 42 42 41 42 42 43 45 45 44 43 43 42 42 42 42 42 42 40 40 38 36 34 32 30 29 28 27 25 24
4 6 5 2 1 2 3 3 3 3 1 5 2 2 3 1 1 3 2 3 5 7 7 9 11 11 12 12 8 5 7 10 11 12 12 14 15 10 8 9 8 7 7 7 8 8 8 10 10 14 19 24 27 28 31 33 36 38 39 39 40 42 44 44 43 42 42 43 42 42 42 42 42 41 40 39 38 37 36 34 32 31 29 28 26 24
2 4 6 2 3 2 2 2 4 3 1 2 4 4 1 2 3 3 3 3 5 6 7 10 10 12 12 8 7 10 8 10 9 8 9 11 11 8 7 8 6 7 8 8 9 9 10 11 12 16 20 23 25 27 28 30 33 35 37 37 38 39 40 40 40 42 42 43 42 40 40 41 41 40 40 39 38 38 37 36 34 33 30 28 26 25
2 5 7 1 3 1 2 4 7 8 6 3 1 2 3 2 1 1 2 3 5 6 6 7 8 14 10 2 1 5 4 9 10 8 9 9 8 8 7 7 6 7 8 8 8 9 10 10 11 15 20 22 23 25 26 29 31 32 33 35 38 38 38 40 41 42 43 43 42 41 41 41 40 40 39 38 38 38 37 36 35 33 31 29 27 25
3 5 7 2 1 5 7 7 10 12 9 7 7 8 8 7 4 3 6 6 4 4 6 7 8 15 10 4 5 5 3 3 5 5 5 5 7 8 7 8 8 8 8 9 9 9 9 10 9 13 18 20 22 24 26 28 28 29 32 34 36 37 39 41 42 44 44 42 42 42 42 41 40 39 39 38 38 38 37 36 34 33 31 29 27 25
5 3 6 7 6 7 8 4 6 8 7 3 5 7 7 7 7 8 9 7 4 4 6 7 10 16 13 2 6 9 6 5 4 2 2 4 6 7 7 8 8 7 8 9 9 9 9 10 9 12 16 19 21 23 25 28 30 32 34 34 35 37 40 42 42 43 42 41 42 42 41 40 40 39 39 39 38 38 37 36 34 33 31 29 28 26
3 3 5 8 5 6 9 5 2 3 2 3 4 5 7 7 7 9 7 5 6 5 5 9 11 14 13 5 4 11 10 7 7 6 6 8 7 7 8 8 8 9 9 8 8 8 8 8 8 10 12 14 19 23 26 28 30 32 33 34 36 39 41 41 40 40 40 41 41 40 40 40 40 39 40 39 39 38 37 36 35 33 31 30 28 26
2 2 5 6 5 5 8 9 5 3 1 2 5 6 7 7 7 7 4 4 7 8 10 13 11 10 12 8 5 9 10 8 8 7 7 7 7 7 8 8 9 9 9 9 8 7 7 8 9 10 10 11 16 22 25 27 28 30 33 35 37 38 38 38 38 39 40 40 39 39 40 40 39 40 40 40 39 38 37 36 35 33 31 29 27 26
3 3 2 4 6 7 7 9 7 3 0 2 4 6 8 9 9 7 5 6 8 10 14 14 11 11 15 16 15 17 15 13 13 12 9 8 8 9 8 8 9 9 10 10 9 7 8 9 9 10 10 10 15 20 23 26 28 29 30 32 35 35 34 35 37 38 38 38 38 38 39 39 40 41 41 40 39 38 37 35 34 33 30 28 26 25
1 2 4 6 8 9 10 11 10 8 6 5 6 9 9 9 10 8 6 7 9 11 13 13 13 15 16 19 23 24 21 18 16 15 13 11 11 10 9 9 10 9 9 10 8 7 8 9 9 10 10 11 15 21 24 26 28 29 29 31 33 32 32 33 35 35 36 36 36 37 38 40 40 40 39 38 37 37 36 35 34 32 29 27 26 24
2 5 10 14 16 16 16 18 18 16 16 16 15 14 12 10 11 11 10 12 13 13 13 12 14 19 18 19 25 28 24 18 14 15 17 15 12 10 8 9 10 10 8 8 9 9 9 10 9 10 11 11 15 20 23 26 28 29 30 30 31 32 32 32 33 33 34 34 35 36 37 38 37 37 36 35 35 35 34 34 33 31 28 26 25 24
4 7 12 15 18 20 21 22 23 21 21 22 21 20 19 16 14 14 17 21 18 15 14 13 19 24 22 20 24 26 22 18 17 19 21 18 16 15 12 10 10 11 10 10 12 11 10 10 10 11 13 12 13 17 21 24 26 27 29 30 31 33 33 33 33 34 34 34 35 36 35 35 34 34 34 33 33 34 34 33 32 29 27 26 25 24
4 6 11 15 17 21 23 24 26 26 24 24 22 20 18 16 15 17 20 21 19 18 18 20 26 26 21 21 24 22 18 17 19 22 22 19 19 20 17 12 10 12 11 11 13 12 11 12 13 13 13 12 12 14 18 21 24 28 30 30 32 33 34 35 35 35 35 35 34 33 33 33 33 33 34 33 33 34 33 33 31 29 28 26 26 25
7 8 12 14 13 16 20 22 24 25 24 24 23 18 15 15 18 21 21 18 16 18 22 24 25 21 19 22 23 19 16 17 21 25 23 20 19 21 20 14 10 12 12 12 13 13 12 13 14 14 13 13 14 16 19 22 25 27 28 29 32 33 34 35 35 34 34 33 31 32 33 33 33 34 34 34 34 34 34 33 31 30 28 27 26 24
9 9 9 9 10 12 15 19 23 23 22 22 20 18 18 20 21 21 19 17 18 20 24 23 19 16 18 19 16 15 18 21 24 26 23 20 20 21 21 15 11 12 15 15 13 12 13 13 14 14 14 14 14 16 21 23 23 24 27 30 32 32 33 34 33 32 32 32 32 33 35 35 35 35 35 35 35 36 35 34 32 31 29 28 26 24
8 8 7 8 9 9 12 18 20 18 16 15 15 20 27 28 25 21 20 22 24 22 19 17 17 17 17 15 13 17 21 23 24 23 21 20 20 21 20 16 12 14 16 15 12 11 12 12 11 13 13 13 14 20 26 27 26 27 30 32 31 31 33 33 33 33 32 32 34 35 36 37 37 37 37 37 38 37 36 35 33 31 29 27 25 23
8 9 8 7 6 8 12 15 14 12 12 11 14 24 30 30 28 27 26 27 28 24 19 18 20 20 18 16 17 21 24 24 23 21 17 15 16 19 17 14 13 14 13 12 11 10 10 10 10 10 12 15 20 26 29 30 30 29 30 30 30 32 34 33 33 33 32 33 35 36 37 38 38 38 38 38 39 38 37 35 32 30 28 26 24 22
9 10 8 6 5 6 8 10 10 11 10 9 13 19 24 26 29 30 28 28 27 26 25 25 25 23 21 21 21 23 26 27 26 23 17 15 16 16 14 14 16 15 13 12 11 10 9 9 10 9 10 16 22 23 23 26 28 27 27 30 32 33 34 33 32 32 32 34 35 36 37 38 38 38 38 38 39 38 37 35 33 31 28 26 24 22
11 9 7 6 6 6 5 7 11 8 2 4 9 12 13 17 20 22 24 27 27 27 26 25 25 24 23 24 24 24 26 26 24 20 18 19 19 17 15 17 18 16 16 14 11 10 10 10 10 12 13 15 18 20 22 25 28 27 28 31 33 33 33 33 32 32 33 34 36 38 39 39 39 39 39 39 39 37 35 34 32 30 28 26 23 21
15 12 8 6 7 8 8 9 13 12 6 4 7 10 13 16 17 17 20 22 22 22 22 22 24 25 24 25 26 24 22 20 17 15 17 21 22 18 17 17 16 16 17 15 12 12 12 12 14 16 16 15 18 22 24 27 29 29 28 29 31 32 32 32 31 33 35 36 37 39 41 41 41 40 40 40 39 37 34 33 31 29 27 25 23 21
18 15 12 9 7 9 12 10 9 12 11 9 9 12 17 21 21 19 19 15 11 13 17 21 25 27 26 25 24 21 18 15 13 13 16 20 20 18 17 15 13 14 15 15 14 12 11 13 16 17 18 17 19 22 25 27 30 29 26 26 29 30 30 30 31 34 36 37 39 41 42 44 45 44 43 43 42 40 37 34 32 29 27 26 24 23
21 17 15 11 6 9 13 10 8 11 8 8 13 16 18 19 17 14 16 11 7 12 18 22 26 26 23 21 19 16 13 11 11 11 14 17 17 15 13 12 11 12 12 13 14 12 11 12 13 13 15 15 16 21 25 28 30 27 23 24 27 27 27 29 33 36 37 38 40 42 43 45 46 46 45 45 44 41 38 35 32 30 27 25 24 22
18 12 11 11 8 11 15 11 9 9 5 7 13 15 17 18 14 11 14 8 9 16 22 23 24 23 19 17 16 12 11 11 12 12 12 14 13 11 9 9 10 11 11 12 13 13 11 12 11 10 12 14 18 22 26 28 28 24 21 24 25 24 27 32 35 36 36 37 39 41 42 44 45 45 44 45 43 40 38 36 33 30 28 25 23 20
10 9 11 13 11 12 15 12 8 8 6 7 12 14 12 10 9 11 14 7 1 7 12 11 13 14 13 12 11 7 7 9 10 10 10 10 10 9 9 8 9 10 10 9 10 10 10 11 13 12 13 16 20 24 28 28 24 20 21 22 22 25 30 32 33 34 36 37 39 40 41 42 44 44 43 44 43 40 37 35 33 31 29 27 24 21
5 5 6 9 10 10 12 11 10 9 3 5 9 11 7 4 6 8 8 11 11 9 11 12 11 11 12 11 10 9 10 12 13 12 13 13 12 12 12 11 9 8 8 6 5 6 8 7 9 10 13 16 20 24 29 28 22 18 19 19 21 27 29 29 32 35 37 38 38 39 40 40 42 43 42 42 42 40 37 34 33 32 30 28 26 23
4 5 5 5 6 7 9 9 8 5 6 15 14 7 1 1 5 8 11 12 10 9 10 10 10 10 10 10 10 11 12 14 14 13 13 13 12 12 13 13 12 10 8 7 6 2 2 3 4 6 7 11 17 23 27 26 20 17 18 18 21 25 27 30 34 36 37 38 38 38 39 40 41 42 42 42 41 40 37 34 32 32 30 29 27 24
4 3 4 5 3 3 5 4 2 2 4 8 8 5 5 8 10 12 12 10 9 8 7 6 8 9 9 9 10 12 12 13 14 14 12 11 10 10 11 11 11 11 8 7 7 5 3 2 3 5 5 4 10 16 22 23 19 15 16 18 21 26 29 33 36 37 37 38 38 38 40 41 41 40 41 42 40 38 37 35 32 31 29 28 26 24
5 4 4 5 5 3 4 6 8 7 6 5 5 7 12 15 14 11 8 6 7 6 5 6 8 8 8 8 9 11 12 12 14 14 13 11 10 9 9 9 9 8 7 5 3 1 2 4 3 3 3 6 10 14 19 22 19 15 16 20 25 30 34 36 37 37 37 38 38 40 41 41 41 41 41 41 40 39 38 36 33 31 29 27 26 24
6 8 7 6 7 7 7 9 10 10 12 16 18 16 16 16 13 8 4 5 7 6 5 6 7 8 9 7 8 10 11 12 13 14 13 12 12 10 9 8 8 7 6 6 4 3 6 7 6 5 6 9 13 18 22 25 25 22 20 23 29 33 36 38 37 36 36 36 37 40 44 43 41 40 40 40 39 39 39 39 36 33 30 28 25 22
5 8 10 8 8 9 10 10 10 13 17 21 22 20 17 13 7 4 5 7 7 7 8 9 9 10 10 9 8 9 11 11 11 12 12 12 12 12 11 10 9 8 7 8 8 7 8 7 7 8 8 10 17 23 25 28 31 27 22 25 31 34 36 38 36 34 35 36 36 39 44 45 42 40 40 39 37 36 37 38 37 34 32 30 25 20
8 10 11 10 9 10 13 15 16 16 17 16 15 14 13 10 8 7 7 7 8 9 9 9 10 10 10 10 10 10 11 12 12 12 13 12 12 12 12 11 10 10 9 9 10 10 8 7 9 11 10 11 18 24 27 29 31 28 24 27 33 36 36 36 35 34 35 36 36 37 41 44 44 42 40 37 35 36 36 35 33 32 31 31 28 24
9 11 10 11 13 13 13 13 14 14 14 13 10 8 9 11 12 10 8 8 9 10 10 10 10 10 11 12 12 11 12 14 13 13 13 13 12 12 13 12 12 11 10 9 10 12 10 10 12 11 11 15 21 25 28 30 29 27 27 30 35 38 37 35 33 33 34 35 36 35 36 39 42 43 41 36 32 32 32 31 29 28 26 25 25 25
8 10 10 10 10 11 11 12 12 12 13 13 12 10 10 11 12 13 12 11 11 11 12 12 12 11 11 12 13 14 14 14 13 13 13 12 12 13 14 14 13 11 11 11 11 12 12 13 14 12 13 17 20 23 27 29 28 27 29 33 38 40 39 35 32 32 33 34 34 35 36 38 40 43 43 37 32 29 26 23 22 24 24 22 20 19
8 10 10 10 11 13 13 12 10 8 8 10 12 13 12 10 10 12 14 14 13 12 12 12 13 15 14 13 12 13 14 15 15 16 15 14 15 15 15 15 14 13 13 13 11 10 11 13 14 13 14 18 20 23 26 27 27 29 32 36 41 42 41 38 34 30 31 33 34 36 39 42 43 43 41 38 36 35 30 23 19 18 19 20 18 16
Wind_Direction
164 191 202 223 234 226 214 215 224 234 243 255 265 269 265 269 270 270 279 230 182 191 225 227 236 248 256 255 248 250 252 255 255 250 249 250 254 257 256 253 242 241 235 187 184 188 190 196 195 191 189 186 183 182 182 181 181 182 181 180 181 180 182 182 182 181 180 178 178 181 184 186 187 189 189 191 193 195 201 209 210 204 204 216 223 229
181 210 219 228 237 240 234 234 236 239 244 251 257 267 272 264 265 273 279 233 181 196 239 241 248 254 258 261 257 252 250 251 251 252 255 253 255 260 260 258 249 239 183 148 165 175 181 187 186 184 182 179 178 178 179 180 181 183 183 183 182 181 183 186 186 184 184 185 185 187 189 189 188 192 194 192 192 196 203 209 209 205 207 214 221 227
226 230 232 235 245 253 250 249 250 255 257 259 266 273 274 268 272 278 273 202 157 199 253 256 260 262 263 263 260 254 248 247 245 246 251 253 257 261 259 259 254 211 144 149 153 160 171 174 175 176 177 179 179 177 179 181 182 183 184 185 184 184 186 188 189 188 188 189 191 192 191 190 189 192 197 197 194 197 202 207 207 206 211 215 218 224
232 231 231 237 247 251 251 243 232 258 264 246 250 260 262 261 268 276 264 166 161 206 245 266 270 266 267 266 258 254 250 248 247 246 250 252 253 256 255 258 246 194 166 162 158 159 164 165 170 174 175 178 178 178 179 181 182 183 185 187 187 188 189 189 190 190 190 189 189 192 191 189 189 188 190 193 194 197 201 204 205 206 211 216 219 224
242 230 202 226 235 236 242 234 206 231 260 237 219 230 251 256 251 256 267 270 212 227 243 280 286 266 249 250 253 250 245 246 245 245 252 253 251 253 255 255 232 185 169 168 168 168 164 168 175 176 175 177 179 181 182 183 184 186 188 190 190 191 191 191 191 189 188 185 182 181 178 177 179 177 178 181 186 193 199 202 203 205 209 214 219 225
249 231 175 208 219 215 224 231 197 194 257 259 210 216 240 254 257 262 286 338 331 278 258 28 311 277 211 216 247 249 222 234 234 232 242 250 254 253 253 253 227 178 172 176 175 172 170 174 177 178 178 180 184 187 187 187 188 189 190 191 192 192 191 191 190 188 187 184 180 177 172 171 172 173 180 186 189 193 197 200 202 204 209 213 217 223
244 202 186 205 212 211 221 245 205 184 251 271 224 218 241 256 264 266 285 328 255 262 252 92 349 288 260 216 240 248 211 221 224 225 233 241 252 253 250 248 216 175 179 181 178 172 171 173 176 182 185 186 189 191 189 190 190 191 192 192 192 193 192 191 190 188 188 185 184 183 181 181 182 183 189 195 198 199 199 198 199 202 207 212 216 221
178 159 169 199 213 218 222 246 217 185 230 261 228 218 233 249 261 255 257 238 232 291 278 172 140 279 282 247 206 221 217 227 232 228 234 237 244 250 252 244 199 177 184 178 177 176 175 180 183 188 191 192 193 191 190 191 192 193 193 192 193 193 193 192 190 190 190 189 188 188 188 189 191 192 195 197 198 201 199 194 195 199 205 210 215 221
129 171 193 195 200 218 219 236 203 177 212 244 190 111 102 121 273 105 215 246 285 332 281 198 144 249 281 272 174 200 206 225 235 228 233 235 238 243 247 245 207 182 187 178 176 180 179 186 189 191 193 194 194 192 192 193 193 193 193 193 194 194 194 193 192 193 193 193 192 192 192 193 195 196 196 195 190 190 191 189 191 196 201 207 212 217
67 187 218 187 185 219 212 198 98 177 211 217 146 80 79 86 38 86 224 262 347 291 247 191 151 216 279 278 155 181 200 217 230 228 229 231 235 238 239 243 219 181 189 182 176 182 183 188 191 191 191 192 194 194 194 194 193 194 193 193 194 195 195 194 194 195 194 195 196 196 196 195 194 192 190 188 183 183 186 187 190 193 197 203 209 215
238 100 329 215 195 203 140 86 23 128 165 154 128 75 51 308 22 86 234 99 353 270 241 190 180 193 272 286 137 171 200 200 210 222 230 232 239 242 237 236 211 177 183 181 177 181 180 184 185 185 186 189 192 193 193 193 193 194 193 194 195 195 196 195 195 196 196 197 199 200 199 196 192 188 184 182 182 184 187 189 192 194 197 201 207 214
246 196 206 275 220 128 105 87 353 27 97 119 119 116 3 307 12 26 301 98 228 267 224 177 185 192 233 254 144 207 205 193 202 202 214 226 235 244 243 229 201 178 174 170 175 176 168 173 177 180 184 185 187 189 191 193 194 195 194 194 195 195 196 197 196 197 198 199 201 202 201 197 193 189 186 185 185 188 190 192 194 194 195 196 201 207
249 234 202 218 309 165 148 124 15 354 310 145 132 134 141 280 309 312 248 146 225 256 224 178 182 201 238 246 232 249 227 201 210 197 204 217 222 239 245 225 193 171 169 169 173 174 171 176 178 180 183 182 184 189 191 193 194 195 196 195 195 197 197 197 197 198 199 201 202 202 201 199 195 193 192 191 190 192 194 194 193 193 193 192 196 203
264 263 186 165 289 189 168 180 207 265 197 177 161 150 166 207 246 246 238 242 243 254 256 199 179 210 266 249 211 231 236 226 223 211 213 215 216 239 243 209 180 170 172 173 174 176 179 185 185 183 183 183 186 190 191 193 194 195 196 196 197 198 198 197 198 198 200 201 202 203 203 201 199 197 197 197 196 196 197 196 195 195 196 196 199 204
240 290 185 168 213 179 182 207 208 160 162 195 178 160 192 194 212 239 230 244 259 276 278 190 167 214 276 232 194 211 230 232 228 221 220 218 227 246 237 160 166 179 179 176 176 183 187 188 189 186 186 187 189 190 191 193 194 195 198 198 198 198 198 198 199 199 200 202 202 202 203 202 201 201 201 201 201 201 200 198 197 197 198 199 201 203
227 271 199 169 172 167 185 216 203 124 129 217 151 149 231 204 188 246 253 249 277 315 275 212 199 240 267 277 242 225 239 239 228 223 217 218 236 244 219 164 179 188 182 180 180 186 188 185 190 193 193 193 191 190 192 193 194 196 199 200 200 199 199 199 199 200 201 202 201 201 202 202 202 202 202 201 201 201 201 200 199 198 199 200 199 199
229 277 179 154 333 171 187 224 191 164 193 186 140 191 224 172 166 223 265 273 298 285 271 258 254 274 300 288 252 225 238 243 234 229 217 212 229 236 223 199 201 196 187 189 187 187 186 182 191 198 198 198 195 194 195 195 196 198 200 201 201 200 200 200 201 201 201 201 201 201 201 201 201 201 202 201 200 199 199 199 201 201 199 200 200 200
224 271 222 170 248 263 279 319 272 227 158 131 177 213 186 35 104 174 264 298 271 257 271 277 273 285 291 282 265 193 227 236 230 225 215 213 223 229 227 220 213 197 186 188 188 188 189 189 195 200 202 204 203 201 200 199 199 201 202 203 201 199 199 202 202 202 201 200 200 201 201 201 201 202 202 202 201 199 197 197 199 200 201 201 202 204
218 258 268 157 15 332 356 335 290 293 115 132 220 238 107 82 229 157 182 234 245 251 269 280 283 279 259 261 299 297 224 216 220 218 213 219 225 228 233 233 213 181 177 185 188 190 193 197 201 202 204 206 207 208 207 205 203 203 205 205 204 202 201 202 202 201 201 202 201 201 202 202 201 202 201 201 200 199 198 198 198 200 202 202 204 207
182 228 259 14 12 348 21 262 207 226 303 53 4 352 84 163 174 176 192 200 227 243 266 281 285 276 260 248 277 273 224 198 209 215 216 224 231 235 238 235 206 180 191 192 192 199 201 203 205 203 204 205 207 210 209 208 207 207 207 206 206 206 203 202 202 201 201 202 202 202 201 202 202 201 200 199 199 199 199 200 200 201 202 203 206 209
166 220 239 310 359 246 198 209 188 190 201 173 206 258 224 199 143 226 246 214 216 227 248 261 266 271 269 164 215 285 212 193 199 202 217 229 238 247 247 239 216 203 211 202 196 205 208 211 210 204 205 207 207 209 209 210 211 210 209 207 207 205 202 202 202 201 202 202 201 201 200 201 201 200 199 198 198 199 199 200 201 201 202 203 206 209
185 213 224 219 252 233 228 213 201 208 204 183 198 208 208 204 188 243 249 228 216 224 234 240 254 263 261 91 47 4 56 194 209 196 218 232 239 250 251 240 224 206 211 211 205 206 205 208 206 200 203 205 206 207 207 209 210 211 212 211 209 206 203 202 201 201 202 201 200 201 200 199 199 198 197 196 196 197 198 198 199 199 200 201 205 209
181 171 220 230 232 246 256 230 205 231 236 223 219 211 211 205 194 220 235 234 239 225 227 242 250 256 261 346 345 309 314 324 313 294 287 264 240 243 240 240 241 228 220 216 208 206 204 202 196 194 197 201 207 209 208 207 208 209 211 210 209 208 206 204 202 201 201 199 199 199 198 197 197 196 195 194 194 195 196 196 197 197 198 200 203 209
158 126 214 241 262 291 291 293 355 336 267 249 249 220 215 214 213 228 236 250 255 227 226 248 246 258 275 289 270 275 281 279 268 264 273 276 270 254 241 240 247 245 240 231 218 212 204 191 183 191 198 201 205 207 208 209 210 209 209 209 209 210 209 205 202 201 199 200 200 197 195 195 195 194 194 193 193 193 194 195 195 196 198 200 203 208
270 224 214 235 255 280 283 271 280 330 348 236 243 229 226 228 230 249 268 265 258 244 244 255 254 262 281 283 252 270 280 271 265 264 259 267 273 261 251 252 249 245 247 247 235 214 194 185 185 195 202 204 205 206 207 209 210 211 210 209 209 212 211 205 201 200 199 199 197 194 194 194 193 194 194 193 193 192 192 193 193 194 197 199 203 207
309 310 270 237 232 234 242 245 248 257 175 210 233 236 240 234 226 237 255 248 248 244 242 252 264 268 279 289 286 281 281 279 280 282 277 271 268 260 254 253 249 244 245 244 235 212 194 196 202 202 203 208 208 207 206 207 210 212 213 212 211 211 210 205 202 200 198 197 195 193 193 192 193 194 194 193 192 190 190 190 191 193 196 200 202 204
338 317 284 256 244 240 239 251 269 274 258 248 237 228 226 228 227 230 239 241 248 254 248 249 264 270 274 281 282 279 277 276 277 282 282 275 269 264 251 242 242 241 242 241 235 221 207 205 210 209 208 211 211 209 208 208 209 209 210 212 212 210 208 205 201 199 198 197 195 193 193 193 194 194 193 192 190 187 187 187 189 192 194 199 202 203
213 232 241 240 241 246 248 254 263 265 260 256 251 242 232 223 220 223 235 240 242 252 254 249 258 265 263 261 266 271 272 273 276 278 279 276 272 265 244 237 244 246 242 238 233 228 221 216 214 215 216 215 212 210 210 210 209 207 208 209 208 207 206 203 199 198 197 196 195 195 195 193 193 193 191 189 186 184 184 184 187 190 193 197 200 203
217 231 229 231 234 239 243 247 249 252 254 252 249 247 243 235 221 218 232 237 235 243 255 253 252 256 257 256 259 264 270 277 281 279 278 279 279 272 256 243 247 247 236 232 234 229 223 225 223 219 221 217 210 208 208 208 207 205 206 207 205 204 203 199 197 196 196 196 197 196 194 191 190 190 188 186 183 181 181 182 185 188 191 195 198 202
206 229 219 227 238 236 237 242 243 246 251 253 252 248 245 246 238 230 235 239 240 247 253 253 251 253 258 259 257 261 271 279 281 277 275 275 274 273 269 254 244 244 232 224 233 233 226 227 227 224 222 216 210 208 206 206 204 202 204 203 201 201 199 196 195 195 196 197 197 194 190 188 187 185 184 182 180 179 179 181 183 186 190 193 197 200
200 218 209 218 241 240 235 239 241 243 247 251 254 254 253 255 252 246 246 247 250 252 250 250 253 256 256 256 259 268 274 274 272 270 271 271 268 270 272 260 239 244 243 229 227 232 230 228 230 230 224 216 213 210 208 207 205 203 202 200 199 198 196 194 193 194 195 195 194 190 186 185 183 182 181 179 178 177 178 180 182 186 189 192 195 199
196 219 215 217 241 238 228 234 239 241 245 248 254 260 257 250 247 246 247 246 245 250 252 252 253 252 251 255 263 268 264 261 262 264 267 267 265 266 269 264 243 244 254 249 235 228 229 230 228 226 222 219 216 211 210 208 202 199 200 199 198 195 192 191 191 192 193 192 189 186 184 183 180 179 178 177 176 177 178 180 182 185 189 192 194 197
193 213 216 217 241 240 223 230 237 239 245 244 238 240 243 245 247 249 248 246 243 244 248 250 248 249 254 259 262 260 257 255 254 256 259 263 266 265 265 263 252 244 250 252 242 229 229 229 226 223 222 219 214 214 214 207 199 200 201 198 194 189 187 189 190 190 190 188 187 185 183 181 178 177 177 177 177 178 179 180 182 184 188 189 191 195
201 214 219 213 236 242 225 230 238 235 236 228 213 222 232 239 244 247 245 243 242 242 244 247 249 253 256 254 252 254 256 256 253 252 252 255 262 265 265 263 254 247 246 247 241 232 227 225 227 227 222 219 219 220 216 208 202 204 200 192 187 185 185 186 188 188 187 185 185 184 181 180 178 176 176 177 177 178 179 179 180 182 185 186 188 192
206 215 225 221 239 249 232 232 239 234 230 221 208 216 228 237 243 249 252 250 249 250 250 250 251 252 252 252 251 252 254 257 259 260 259 255 255 261 268 265 258 255 255 253 249 240 232 229 232 233 231 228 224 218 208 202 200 197 189 184 183 183 183 184 185 185 185 184 183 182 180 179 178 176 175 176 177 177 177 178 179 180 182 185 188 191
216 218 222 220 230 243 231 221 236 255 272 184 198 207 221 238 246 253 258 253 247 247 250 252 254 252 250 251 250 250 253 256 261 265 265 262 258 255 256 259 261 263 262 260 257 248 241 231 223 229 234 228 214 201 194 193 191 184 179 181 181 181 182 182 182 183 184 183 182 182 180 179 177 176 175 176 176 175 175 176 176 178 179 181 184 187
222 226 228 226 220 226 239 234 240 263 274 200 189 195 206 222 227 234 249 247 236 239 247 251 255 253 249 248 248 250 254 259 264 267 262 260 260 257 253 255 259 264 266 269 263 254 247 234 225 230 227 208 193 191 190 187 183 177 174 177 178 178 179 179 181 184 184 183 183 182 181 179 177 175 174 175 175 174 174 175 175 176 178 177 179 182
220 223 224 227 211 214 239 245 240 251 246 214 202 201 208 223 225 227 246 249 221 223 237 242 246 248 245 246 249 251 255 258 259 259 258 258 260 260 258 257 254 251 257 262 259 255 247 232 224 220 208 191 190 194 188 181 178 173 171 174 176 177 177 180 185 186 185 185 184 182 181 181 178 176 175 176 177 175 175 175 175 176 179 179 180 183
226 226 225 233 227 219 237 244 235 245 240 203 206 208 210 225 230 234 257 258 197 205 230 235 240 244 243 245 248 247 249 255 255 254 255 256 260 261 257 252 248 243 243 246 246 246 237 221 210 198 189 186 193 193 185 178 175 171 171 176 176 176 180 186 190 188 185 185 183 181 181 181 180 178 177 177 177 176 174 174 174 175 177 179 180 181
229 226 225 235 230 220 233 242 237 247 243 185 199 210 215 223 224 235 258 252 175 203 227 233 239 246 246 246 248 242 238 245 249 252 253 253 260 264 249 234 235 237 237 238 240 239 223 198 182 175 184 194 195 188 181 176 172 172 177 177 175 180 190 193 191 187 184 182 180 180 180 180 180 179 177 176 176 175 174 173 172 172 174 175 177 178
237 228 218 225 229 222 228 239 246 249 240 203 208 210 209 218 222 232 253 282 302 244 261 270 271 279 287 283 281 275 266 272 280 286 291 293 294 289 273 253 240 233 235 240 237 221 194 182 184 190 199 200 191 183 178 173 172 178 180 175 180 194 198 193 186 182 180 178 177 178 179 180 181 179 178 177 175 172 171 171 172 172 172 172 172 173
267 268 231 228 238 232 229 242 252 249 293 334 277 240 202 202 247 257 294 338 351 347 353 352 340 343 350 343 337 330 324 331 338 339 341 341 335 326 320 317 304 279 272 282 260 197 170 175 193 204 208 199 187 182 178 174 175 182 178 180 196 200 193 184 180 178 176 174 175 176 177 179 180 178 176 174 172 169 168 169 171 172 170 169 169 170
297 311 296 262 252 246 242 244 239 235 4 2 339 310 296 331 312 327 340 342 342 359 10 358 351 360 2 353 346 338 336 340 343 346 349 348 347 346 341 338 332 316 304 312 321 306 171 179 211 231 228 201 188 185 180 177 179 182 183 194 203 192 180 177 177 174 172 171 172 174 175 176 177 177 174 172 170 168 166 166 168 168 168 168 167 167
271 264 281 297 324 313 272 267 282 296 332 356 4 350 320 323 331 330 324 325 337 354 3 350 345 349 349 346 340 335 335 335 333 335 338 336 340 342 338 338 340 335 328 331 343 352 347 312 311 319 314 237 201 192 186 184 186 185 193 202 193 179 174 175 173 170 170 171 171 172 173 174 174 175 174 172 169 166 163 163 164 163 164 166 166 166
284 308 315 311 307 297 277 288 307 315 308 311 318 303 302 314 318 306 296 318 332 330 332 334 331 332 339 343 335 329 328 325 324 324 322 321 323 322 319 322 327 332 334 329 332 344 230 245 269 295 272 232 217 207 200 198 195 196 204 200 184 176 174 172 170 170 170 170 171 172 172 171 170 172 173 172 169 165 162 161 161 160 162 165 166 166
317 322 319 310 303 301 288 276 286 306 314 308 304 302 307 310 302 280 283 324 321 311 312 318 319 321 323 323 323 317 311 310 312 311 309 310 310 305 304 305 307 315 317 302 285 208 199 218 230 225 221 219 215 212 210 208 205 207 207 194 182 178 175 171 170 171 171 170 170 171 169 167 166 167 168 169 170 168 166 165 163 162 164 166 166 166
298 301 297 294 299 302 291 282 291 303 304 301 300 304 309 308 303 314 334 331 323 318 314 312 311 309 305 304 303 297 293 297 300 298 299 302 301 300 301 297 296 298 290 275 255 218 198 202 215 218 220 221 218 216 214 213 212 213 206 189 182 180 175 172 171 172 172 170 168 167 168 166 163 163 164 165 166 167 167 167 166 164 164 166 166 165
305 309 305 293 286 283 283 291 298 294 289 288 292 303 316 326 332 331 319 313 315 314 310 310 308 305 303 303 300 295 295 297 296 296 299 299 296 296 294 291 290 288 278 261 237 215 201 201 216 220 222 226 222 217 217 217 216 212 201 189 184 179 174 174 176 174 173 170 166 166 168 166 162 161 161 162 163 165 165 166 166 166 169 172 171 169
299 298 296 295 294 288 285 294 300 297 297 300 302 316 337 338 334 330 324 321 323 320 316 313 310 310 312 310 307 306 302 299 299 300 299 296 295 296 293 291 290 284 277 265 235 217 210 216 221 218 221 230 225 216 216 219 216 209 199 189 183 178 175 176 177 175 172 170 167 167 168 166 164 162 159 159 160 163 165 167 167 167 170 175 179 177
281 278 284 294 294 288 295 311 319 315 309 310 320 341 351 343 341 343 338 332 330 326 323 322 321 322 321 318 318 317 312 308 308 309 305 301 300 300 297 297 296 289 284 278 254 231 224 228 229 225 229 235 227 214 214 218 212 205 198 190 183 180 177 174 174 174 173 172 171 169 167 166 164 162 159 157 156 155 158 162 166 169 170 172 176 177
263 269 278 283 280 284 299 317 330 324 305 306 326 342 344 341 344 341 331 326 325 323 324 327 326 323 318 313 310 308 306 306 308 308 307 303 299 298 296 296 295 291 289 285 272 251 238 235 232 230 236 238 226 214 215 215 206 200 197 190 185 183 179 175 172 173 177 178 176 173 169 164 162 161 159 157 155 153 151 151 156 167 172 169 165 164